OH5GWF-1 Weather Reports


time (UTC)temp
C
wind
direction
speed
KPH
gust
KPH
rain 1hr
cm
rain 24hr
cm
rain mn
cm
humidity
%
barometer
mb
20260508135612 21 310 3.2 8.0 0.00 0.00 0.00 30 1026.6
20260508135518 20 19 3.2 3.2 0.00 0.00 0.00 30 1026.6
20260508134909 18 248 4.8 9.7 0.00 0.00 0.00 31 1026.7
20260508134346 16 248 4.8 9.7 0.00 0.00 0.00 34 1026.6
20260508134207 15 327 4.8 16.1 0.00 0.00 0.00 34 1026.6
20260508133506 13 84 8.0 9.7 0.00 0.00 0.00 35 1026.7
20260508133242 13 334 8.0 12.9 0.00 0.00 0.00 35 1026.6
20260508132803 14 2 11.3 19.3 0.00 0.00 0.00 36 1026.6
20260508132150 13 294 4.8 4.8 0.00 0.00 0.00 36 1026.6
20260508132101 13 252 1.6 4.8 0.00 0.00 0.00 36 1026.6
20260508131411 12 333 8.0 12.9 0.00 0.00 0.00 36 1026.6
20260508131047 12 100 8.0 16.1 0.00 0.00 0.00 35 1026.6
20260508130708 13 281 3.2 8.0 0.00 0.00 0.00 35 1026.7
20260508125943 15 331 4.8 9.7 0.00 0.00 0.00 34 1026.7
20260508125306 17 253 8.0 8.0 0.00 0.00 0.00 31 1026.5
20260508124851 19 308 4.8 4.8 0.00 0.00 0.00 30 1026.5
20260508124612 21 259 9.7 14.5 0.00 0.00 0.00 29 1026.5
20260508123910 21 22 4.8 11.3 0.00 0.00 0.00 30 1026.6
20260508123746 21 334 3.2 12.9 0.00 0.00 0.00 30 1026.5
20260508123207 20 315 3.2 9.7 0.00 0.00 0.00 30 1026.7
20260508122655 19 286 11.3 16.1 0.00 0.00 0.00 31 1026.7
20260508122504 19 294 11.3 19.3 0.00 0.00 0.00 30 1026.7
20260508121802 20 250 8.0 14.5 0.00 0.00 0.00 31 1026.8
20260508121550 19 249 3.2 3.2 0.00 0.00 0.00 31 1026.6
20260508121111 18 282 4.8 12.9 0.00 0.00 0.00 31 1026.7
20260508120446 18 259 3.2 12.9 0.00 0.00 0.00 31 1026.7
20260508120408 18 319 8.0 9.7 0.00 0.00 0.00 31 1026.8
20260508115705 19 331 9.7 20.9 0.00 0.00 0.00 31 1026.5
20260508115341 18 298 8.0 16.1 0.00 0.00 0.00 31 1026.4
20260508115002 18 262 8.0 14.5 0.00 0.00 0.00 31 1026.5
20260508114251 18 293 8.0 9.7 0.00 0.00 0.00 30 1026.4
20260508113611 18 21 4.8 11.3 0.00 0.00 0.00 32 1026.4
20260508112910 18 343 4.8 11.3 0.00 0.00 0.00 33 1026.7
20260508112208 17 325 8.0 12.9 0.00 0.00 0.00 33 1026.6
20260508111506 17 253 1.6 3.2 0.00 0.00 0.00 33 1026.6
20260508110803 16 245 4.8 11.3 0.00 0.00 0.00 35 1026.5
20260508110112 16 4 8.0 11.3 0.00 0.00 0.00 35 1026.5
20260508105410 15 251 12.9 19.3 0.00 0.00 0.00 36 1026.4
20260508104706 15 332 4.8 16.1 0.00 0.00 0.00 36 1026.4
20260508104005 15 1 3.2 11.3 0.00 0.00 0.00 37 1026.5
20260508103303 13 249 9.7 22.5 0.00 0.00 0.00 38 1026.3
20260508102612 13 17 16.1 25.7 0.00 0.00 0.00 38 1026.4
20260508101910 13 254 12.9 16.1 0.00 0.00 0.00 38 1026.3
20260508101208 12 328 11.3 14.5 0.00 0.00 0.00 38 1026.3
20260508100504 13 258 12.9 20.9 0.00 0.00 0.00 38 1026.2
20260508095803 12 257 9.7 19.3 0.00 0.00 0.00 38 1026.2
20260508095112 12 289 12.9 25.7 0.00 0.00 0.00 38 1026.3
20260508094409 12 22 8.0 8.0 0.00 0.00 0.00 41 1026.3
20260508093707 12 314 4.8 11.3 0.00 0.00 0.00 40 1026.3
20260508093005 12 104 9.7 14.5 0.00 0.00 0.00 40 1026.2
20260508092312 12 249 9.7 9.7 0.00 0.00 0.00 40 1026.2
20260508091602 13 283 8.0 16.1 0.00 0.00 0.00 40 1026.3
20260508090912 13 324 8.0 19.3 0.00 0.00 0.00 40 1026.2
20260508090210 12 259 4.8 9.7 0.00 0.00 0.00 38 1026.1
20260508085508 13 303 4.8 16.1 0.00 0.00 0.00 40 1026.1
20260508084806 13 237 1.6 9.7 0.00 0.00 0.00 40 1026.1
20260508084103 13 1 11.3 25.7 0.00 0.00 0.00 40 1026.1
20260508083412 13 226 8.0 16.1 0.00 0.00 0.00 42 1026.0
20260508082710 13 249 8.0 14.5 0.00 0.00 0.00 41 1026.1
20260508082007 13 276 9.7 16.1 0.00 0.00 0.00 41 1026.0
20260508081305 14 281 9.7 19.3 0.00 0.00 0.00 41 1026.0
20260508080601 14 8 3.2 14.5 0.00 0.00 0.00 43 1025.8
20260508075911 13 307 11.3 11.3 0.00 0.00 0.00 42 1025.8
20260508075209 14 258 8.0 20.9 0.00 0.00 0.00 42 1025.8
20260508074506 14 311 4.8 11.3 0.00 0.00 0.00 44 1025.5
20260508073804 13 248 3.2 3.2 0.00 0.00 0.00 44 1025.6
20260508073103 13 291 8.0 20.9 0.00 0.00 0.00 45 1025.6
20260508072412 13 307 9.7 16.1 0.00 0.00 0.00 44 1025.4
20260508071709 13 258 8.0 4.8 0.00 0.00 0.00 46 1025.3
20260508071006 13 286 4.8 8.0 0.00 0.00 0.00 47 1025.3
20260508070304 13 296 8.0 14.5 0.00 0.00 0.00 47 1025.3
20260508065602 12 284 8.0 12.9 0.00 0.00 0.00 49 1025.2
20260508064911 12 266 9.7 12.9 0.00 0.00 0.00 49 1025.1
20260508064209 12 356 8.0 16.1 0.00 0.00 0.00 49 1024.9
20260508063505 11 357 4.8 9.7 0.00 0.00 0.00 50 1024.9
20260508062803 11 246 4.8 8.0 0.00 0.00 0.00 52 1024.9
20260508062101 11 254 9.7 14.5 0.00 0.00 0.00 53 1025.0
20260508061410 10 18 8.0 8.0 0.00 0.00 0.00 54 1024.7
20260508060707 10 4 4.8 8.0 0.00 0.00 0.00 55 1024.6
20260508060005 9 250 8.0 12.9 0.00 0.00 0.00 56 1024.7
20260508055305 9 21 9.7 11.3 0.00 0.00 0.00 57 1024.5
20260508054612 9 253 4.8 11.3 0.00 0.00 0.00 59 1024.5
20260508053909 8 265 4.8 8.0 0.00 0.00 0.00 61 1024.5
20260508053207 8 261 8.0 14.5 0.00 0.00 0.00 62 1024.5
20260508052505 7 334 8.0 8.0 0.00 0.00 0.00 63 1024.3
20260508051804 7 311 3.2 8.0 0.00 0.00 0.00 65 1024.2
20260508051102 7 250 1.6 8.0 0.00 0.00 0.00 65 1024.1
20260508050411 7 335 3.2 8.0 0.00 0.00 0.00 67 1023.9
20260508045709 6 288 4.8 8.0 0.00 0.00 0.00 68 1023.9
20260508045007 6 330 9.7 12.9 0.00 0.00 0.00 69 1023.8
20260508044303 5 5 8.0 12.9 0.00 0.00 0.00 69 1023.8
20260508043601 5 256 8.0 16.1 0.00 0.00 0.00 69 1023.7
20260508042912 5 344 8.0 14.5 0.00 0.00 0.00 69 1023.7
20260508042211 5 333 4.8 14.5 0.00 0.00 0.00 70 1023.5
20260508041509 5 265 4.8 11.3 0.00 0.00 0.00 70 1023.5
20260508040805 5 8 4.8 9.7 0.00 0.00 0.00 70 1023.3
20260508040104 4 253 4.8 8.0 0.00 0.00 0.00 70 1023.2
20260508035403 4 284 8.0 11.3 0.00 0.00 0.00 71 1023.2
20260508034701 3 313 11.3 9.7 0.00 0.00 0.00 72 1023.1
20260508034011 3 253 4.8 9.7 0.00 0.00 0.00 72 1023.1
20260508033308 3 250 1.6 8.0 0.00 0.00 0.00 72 1023.0
20260508032606 3 252 3.2 4.8 0.00 0.00 0.00 73 1022.9
20260508031905 2 74 3.2 4.8 0.00 0.00 0.00 74 1023.0
20260508031204 2 248 3.2 4.8 0.00 0.00 0.00 75 1022.9
20260508030502 2 248 1.6 9.7 0.00 0.00 0.00 76 1022.9
20260508025811 1 249 1.6 4.8 0.00 0.00 0.00 76 1022.8
20260508025109 1 248 1.6 3.2 0.00 0.00 0.00 76 1022.8
20260508024406 1 248 0.0 1.6 0.00 0.00 0.00 76 1022.7
20260508023704 1 248 1.6 8.0 0.00 0.00 0.00 76 1022.5
20260508023002 0 248 1.6 3.2 0.00 0.00 0.00 75 1022.4
20260508022312 0 248 0.0 0.0 0.00 0.00 0.00 75 1022.3
20260508021611 1 248 0.0 3.2 0.00 0.00 0.00 74 1022.2
20260508020909 1 248 1.6 4.8 0.00 0.00 0.00 75 1022.1
20260508020206 1 260 0.0 4.8 0.00 0.00 0.00 74 1022.1
20260508015505 1 248 1.6 4.8 0.00 0.00 0.00 74 1022.0
20260508014802 1 248 1.6 3.2 0.00 0.00 0.00 73 1021.9
20260508014112 1 248 0.0 1.6 0.00 0.00 0.00 72 1021.8
20260508013410 1 248 1.6 3.2 0.00 0.00 0.00 72 1021.8
20260508012707 1 11 8.0 9.7 0.00 0.00 0.00 73 1021.8
20260508012005 1 237 1.6 4.8 0.00 0.00 0.00 71 1021.6
20260508011302 1 248 1.6 3.2 0.00 0.00 0.00 70 1021.5
20260508010611 1 248 0.0 3.2 0.00 0.00 0.00 69 1021.5
20260508005910 2 248 1.6 1.6 0.00 0.00 0.00 69 1021.4
20260508005207 2 248 0.0 3.2 0.00 0.00 0.00 68 1021.4
20260508004505 2 248 1.6 3.2 0.00 0.00 0.00 68 1021.4
20260508003802 2 255 3.2 9.7 0.00 0.00 0.00 68 1021.2
20260508003112 2 250 3.2 8.0 0.00 0.00 0.00 68 1021.2
20260508002410 2 255 3.2 9.7 0.00 0.00 0.00 68 1021.1
20260508001707 2 248 1.6 1.6 0.00 0.00 0.00 67 1020.9
20260508001005 2 248 4.8 4.8 0.00 0.00 0.00 66 1020.8
20260508000301 2 258 4.8 8.0 0.00 0.00 0.00 67 1020.7
20260507235612 3 248 0.0 3.2 0.00 0.00 0.00 66 1020.6
20260507234909 2 263 1.6 4.8 0.00 0.00 0.00 65 1020.5
20260507234206 2 248 1.6 4.8 0.00 0.00 0.00 66 1020.4
20260507233504 2 293 3.2 4.8 0.00 0.00 0.00 65 1020.3
20260507232802 2 248 1.6 4.8 0.00 0.00 0.00 65 1020.2
20260507232111 2 243 3.2 4.8 0.00 0.00 0.00 66 1020.1
20260507231409 2 248 1.6 1.6 0.00 0.00 0.00 66 1019.9
20260507230706 2 248 0.0 4.8 0.00 0.00 0.00 65 1019.8
20260507230005 2 248 0.0 1.6 0.00 0.00 0.00 65 1019.8
20260507225306 2 248 0.0 1.6 0.00 0.00 0.00 64 1019.7
20260507224602 2 248 0.0 1.6 0.00 0.00 0.00 64 1019.6
20260507223901 2 248 1.6 8.0 0.00 0.00 0.00 64 1019.6
20260507223211 2 248 0.0 0.0 0.00 0.00 0.00 62 1019.5
20260507222510 2 248 0.0 0.0 0.00 0.00 0.00 62 1019.4
20260507221808 2 248 0.0 0.0 0.00 0.00 0.00 62 1019.4
20260507221105 2 248 0.0 0.0 0.00 0.00 0.00 62 1019.4
20260507220403 2 248 1.6 0.0 0.00 0.00 0.00 63 1019.1
20260507215702 2 248 0.0 1.6 0.00 0.00 0.00 62 1019.0
20260507215012 2 248 0.0 0.0 0.00 0.00 0.00 62 1018.9
20260507214311 2 248 0.0 3.2 0.00 0.00 0.00 61 1018.8
20260507213607 2 248 0.0 1.6 0.00 0.00 0.00 61 1018.7
20260507212907 2 248 1.6 1.6 0.00 0.00 0.00 60 1018.6
20260507212203 2 248 1.6 3.2 0.00 0.00 0.00 59 1018.5
20260507211501 2 248 0.0 0.0 0.00 0.00 0.00 59 1018.3
20260507210811 2 248 0.0 0.0 0.00 0.00 0.00 58 1018.2
20260507210107 2 248 0.0 0.0 0.00 0.00 0.00 58 1018.2
20260507205406 2 248 0.0 0.0 0.00 0.00 0.00 57 1018.1
20260507204704 2 248 0.0 0.0 0.00 0.00 0.00 57 1018.0
20260507204002 2 248 0.0 1.6 0.00 0.00 0.00 57 1017.9
20260507203312 3 248 0.0 0.0 0.00 0.00 0.00 57 1017.9
20260507202611 3 248 0.0 0.0 0.00 0.00 0.00 57 1017.8
20260507201909 3 248 0.0 0.0 0.00 0.00 0.00 57 1017.7
20260507201207 3 248 0.0 1.6 0.00 0.00 0.00 56 1017.7
20260507200504 3 248 0.0 0.0 0.00 0.00 0.00 56 1017.5
20260507195802 3 248 0.0 0.0 0.00 0.00 0.00 56 1017.6
20260507195111 3 248 0.0 0.0 0.00 0.00 0.00 55 1017.5
20260507194410 3 248 0.0 1.6 0.00 0.00 0.00 53 1017.5
20260507193708 3 248 0.0 0.0 0.00 0.00 0.00 52 1017.3
20260507193006 3 248 0.0 0.0 0.00 0.00 0.00 51 1017.3
20260507192306 3 248 0.0 0.0 0.00 0.00 0.00 51 1017.3
20260507191602 3 248 0.0 0.0 0.00 0.00 0.00 51 1017.1
20260507190911 4 248 0.0 0.0 0.00 0.00 0.00 50 1017.0
20260507190209 4 248 0.0 0.0 0.00 0.00 0.00 49 1017.0
20260507185506 5 248 0.0 0.0 0.00 0.00 0.00 48 1016.9
20260507184804 5 248 0.0 0.0 0.00 0.00 0.00 48 1016.9
20260507184101 5 248 0.0 0.0 0.00 0.00 0.00 47 1016.8
20260507183411 6 248 1.6 1.6 0.00 0.00 0.00 47 1016.7
20260507182710 6 248 0.0 0.0 0.00 0.00 0.00 47 1016.6
20260507182008 6 248 0.0 1.6 0.00 0.00 0.00 46 1016.6
20260507181306 6 248 0.0 0.0 0.00 0.00 0.00 45 1016.6
20260507180603 7 248 0.0 1.6 0.00 0.00 0.00 45 1016.5
20260507175913 7 248 0.0 1.6 0.00 0.00 0.00 44 1016.4
20260507175211 8 248 0.0 1.6 0.00 0.00 0.00 44 1016.4
20260507174507 8 248 0.0 3.2 0.00 0.00 0.00 44 1016.4
20260507173806 8 248 0.0 1.6 0.00 0.00 0.00 44 1016.3
20260507173104 8 248 0.0 3.2 0.00 0.00 0.00 43 1016.2
20260507172401 9 248 0.0 3.2 0.00 0.00 0.00 43 1016.2
20260507171711 9 248 0.0 0.0 0.00 0.00 0.00 43 1016.1
20260507171008 9 248 1.6 1.6 0.00 0.00 0.00 43 1016.1
20260507170306 9 248 0.0 0.0 0.00 0.00 0.00 43 1016.2
20260507165604 9 248 1.6 3.2 0.00 0.00 0.00 43 1016.0
20260507164901 9 248 0.0 0.0 0.00 0.00 0.00 42 1015.8
20260507164212 9 248 0.0 0.0 0.00 0.00 0.00 42 1015.8
20260507163510 10 248 0.0 1.6 0.00 0.00 0.00 41 1015.9
20260507162809 10 248 0.0 1.6 0.00 0.00 0.00 41 1015.7
20260507162108 10 248 0.0 0.0 0.00 0.00 0.00 40 1015.6
20260507161405 10 248 0.0 1.6 0.00 0.00 0.00 39 1015.6
20260507160702 11 248 0.0 1.6 0.00 0.00 0.00 37 1015.6
20260507160011 11 255 4.8 4.8 0.00 0.00 0.00 37 1015.5
20260507155310 12 251 0.0 4.8 0.00 0.00 0.00 34 1015.4
20260507154609 12 248 3.2 4.8 0.00 0.00 0.00 34 1015.4
20260507153908 12 31 1.6 3.2 0.00 0.00 0.00 33 1015.3
20260507153207 12 258 3.2 11.3 0.00 0.00 0.00 33 1015.4
20260507152504 12 269 1.6 4.8 0.00 0.00 0.00 33 1015.3
20260507151802 12 251 3.2 4.8 0.00 0.00 0.00 33 1015.3
20260507151111 13 256 3.2 9.7 0.00 0.00 0.00 32 1015.2
20260507150408 13 353 3.2 8.0 0.00 0.00 0.00 32 1015.3
20260507145706 14 247 1.6 3.2 0.00 0.00 0.00 30 1015.2
20260507145004 16 251 3.2 4.8 0.00 0.00 0.00 28 1015.3
20260507144302 20 248 4.8 8.0 0.00 0.00 0.00 27 1015.2
20260507143611 20 126 3.2 4.8 0.00 0.00 0.00 27 1015.1
20260507142908 18 296 4.8 4.8 0.00 0.00 0.00 27 1015.1
20260507142205 19 288 4.8 8.0 0.00 0.00 0.00 26 1015.2
20260507141504 23 248 3.2 4.8 0.00 0.00 0.00 25 1015.2
20260507140812 24 265 4.8 4.8 0.00 0.00 0.00 25 1015.2
20260507140110 25 356 3.2 8.0 0.00 0.00 0.00 25 1015.2